Location: Aalen
(48.8330°N, 10.1000°E)
Time: 11:24:14
(UTC+02:00)

COSMOS 2251 DEB - Pass Details

Date: 31 January 2022
Orbit: 659 x 820 km, 74.0° (Epoch: 24 May)

Event Time Altitude Azimuth Distance (km) Brightness Sun altitude
Rises 21:11:29 0° 319° (NW) 3,049 ? -38.6°
Reaches altitude 10° 21:15:11 10° 290° (WNW) 2,103 ? -39.1°
Maximum altitude 21:17:01 12° 267° (W) 1,944 ? -39.4°
Enters shadow 21:17:03 12° 266° (W) 1,944 ? -39.4°
